Home > Weather > Breckenridge > Past weeks

Flag for USA Weather for the Past 2 Weeks in Breckenridge, Colorado, USA

Now
53 °F

Sunny.


Feels Like: 51 °F
Forecast: 25 / 60 °F
Wind: 7 mph from North

Location: Lake County Airport

Current Time: May 4, 2016 at 11:34:39 AM

Latest Report: May 4, 2016 at 10:53 AM


Visibility: 10 mi

Pressure: 30.09 "Hg (21.19 "Hg at 2921m altitude)

Humidity: 16%

Dew Point: 8 °F

Location of BreckenridgeLocation

Historic Weather in Breckenridge — Graph

°F

Breckenridge Temperature Yesterday

Maximum temperature yesterday: 52 °F (at 4:53 PM)
Minimum temperature yesterday: 21 °F (at 5:53 AM)
Average temperature yesterday: 37 °F

High & Low Weather Summary for the Past Weeks

 TemperatureHumidityPressure
High55 °F (Apr 22, 4:53 PM)100% (Apr 23, 7:01 PM)30.42 "Hg (Apr 23, 7:01 PM)
Low14 °F (May 2, 5:53 AM)15% (May 3, 4:53 PM)29.41 "Hg (Apr 25, 7:53 PM)
Average31 °F68%29.88 "Hg
* Reported Apr 19 10:01 AM — May 4 9:53 AM, Breckenridge, Weather by CustomWeather, © 2016

Note: Actual official high and low records may vary slightly from our data, if they occured in-between our weather recording intervals... More about our weather records

Advertising

Breckenridge Weather History for the Previous 24 Hours

Scroll right to see more
 ConditionsComfort  
Time TempWeatherWind HumidityBarometerVisibility
9:53 AM
Wed, May 4
49 °FSunny.3 mph22%30.12 "Hg10 mi
8:53 AM40 °FSunny.No wind38%30.16 "Hg10 mi
7:53 AM33 °FSunny.No wind52%30.18 "Hg10 mi
6:53 AM27 °FClear.5 mph58%30.17 "Hg10 mi
5:53 AM24 °FClear.6 mph68%30.16 "Hg10 mi
4:53 AM23 °FClear.5 mph68%30.17 "Hg10 mi
3:53 AM26 °FClear.5 mph63%30.17 "Hg10 mi
2:53 AM26 °FClear.8 mph66%30.17 "Hg10 mi
1:53 AM28 °FClear.3 mph58%30.16 "Hg10 mi
12:53 AM26 °FClear.3 mph66%30.19 "Hg10 mi
11:53 PM
Tue, May 3
28 °FClear.3 mph61%30.20 "Hg10 mi
10:53 PM33 °FClear.No wind45%30.16 "Hg10 mi
9:53 PM32 °FClear.6 mph54%30.42 "Hg10 mi
8:53 PM38 °FSunny.5 mph37%30.39 "Hg10 mi
7:53 PM45 °FSunny.6 mph25%30.37 "Hg10 mi
6:53 PM50 °FSunny.10 mph19%30.35 "Hg10 mi
5:53 PM52 °FSunny.8 mph15%30.35 "Hg10 mi
4:53 PM52 °FSunny.9 mph15%30.35 "Hg10 mi
3:53 PM50 °FSunny.10 mph17%30.35 "Hg10 mi
2:53 PM50 °FSunny.6 mph17%30.35 "Hg10 mi
1:53 PM49 °FSunny.10 mph16%30.34 "Hg10 mi
12:53 PM47 °FSunny.12 mph18%30.34 "Hg10 mi
11:53 AM44 °FSunny.8 mph21%30.34 "Hg10 mi
Weather by CustomWeather, © 2016

See weather overviewHow to use our weather pages